Torna al catalogo

COSMOS 2251 DEB

AttivoVLEO
NORAD 34316·DEBRIS·🇷🇺 Russia

Lanciato Jun 16, 1993 da Plesetsk Cosmodrome

Loading…

Prossimi Passaggi (prossime 24 ore)

TLE

AggiornatoSource: Space-Track

Epoca: Sep 13, 2026, 22:31 UTC

1 34316U 93036NN  26256.93834311  .00012273  00000-0  91685-3 0  9998
2 34316  74.0602 140.2128 0013165 178.3846 181.7387 15.02786660933303

Traccia COSMOS 2251 DEB in tempo reale con AllMySat

Download on the App Store